HULIANWANG DIGUI-106

Last updated on Mon Dec 15 2025 00:02:13 GMT+0000 (Coordinated Universal Time)

1 66916U 25285B 25348.33740312 -.00000124 00000+0 17433-4 0 9994 2 66916 50.0052 110.7424 0006967 281.6694 78.3429 14.04835051 1134
UTC large
Height (km)
Speed (km/s)
/
Latitude / Longitude
Inclination (degrees)
Orbital Period (minutes)
Azimuth
Elevation
Range (km)
Doppler Factor

Next 0 passes for location: London (51.5072 / 0.1276)

Sorry there are no passes over London.